NKS1354 KSDF-KFLL

Flight info

Callsign NKS1354
Flight time 2h 23m
Altitude 39000
Route LOKRD1 BILET NOTWO WALET ZPLEN TEEKY3
Aircraft A20N/M-SDE2E3FGHIRWXY/LB1

Departure

Time 2026-05-03 21:42
Airport Louisville Muhammad Ali International Airport (KSDF)

Arrival

Time 2026-05-04 00:06
Airport Fort Lauderdale Hollywood International Airport (KFLL)
Time Latitude Longitude Altitude Speed Heading
2026-05-03 21:22 38.18320 -85.73866 480 ft 0 kts 357°
2026-05-03 21:32 38.18310 -85.73866 483 ft 3 kts 357°
2026-05-03 21:32 38.18289 -85.73865 479 ft 3 kts 357°
2026-05-03 21:33 38.18268 -85.73864 481 ft 3 kts 358°
2026-05-03 21:33 38.18259 -85.73866 478 ft 0 kts 49°
2026-05-03 21:37 38.18259 -85.73864 478 ft 0 kts 49°
2026-05-03 21:37 38.18308 -85.73761 481 ft 12 kts 60°
2026-05-03 21:38 38.18325 -85.73725 481 ft 13 kts 60°
2026-05-03 21:38 38.18307 -85.73625 487 ft 10 kts 128°
2026-05-03 21:38 38.18331 -85.73527 485 ft 15 kts 56°
2026-05-03 21:39 38.18402 -85.73446 487 ft 15 kts 12°
2026-05-03 21:39 38.18519 -85.73420 486 ft 19 kts 10°
2026-05-03 21:39 38.18636 -85.73378 488 ft 13 kts 51°
2026-05-03 21:39 38.18650 -85.73343 489 ft 0 kts 60°
2026-05-03 21:40 38.18663 -85.73315 486 ft 7 kts 59°
2026-05-03 21:41 38.18694 -85.73252 483 ft 0 kts 63°
2026-05-03 21:41 38.18710 -85.73179 481 ft 26 kts 85°
2026-05-03 21:41 38.18649 -85.73105 478 ft 19 kts 162°
2026-05-03 21:42 38.18339 -85.73003 478 ft 89 kts 165°
2026-05-03 21:42 38.17497 -85.72702 537 ft 156 kts 168°
2026-05-03 21:42 38.16382 -85.72326 1166 ft 173 kts 169°
2026-05-03 21:42 38.15175 -85.71915 1977 ft 185 kts 168°
2026-05-03 21:43 38.13915 -85.71441 2745 ft 193 kts 167°
2026-05-03 21:43 38.12613 -85.70970 3596 ft 194 kts 169°
2026-05-03 21:43 38.11290 -85.70529 4293 ft 202 kts 170°
2026-05-03 21:43 38.09906 -85.70093 5140 ft 210 kts 170°
2026-05-03 21:44 38.08430 -85.69451 5716 ft 242 kts 155°
2026-05-03 21:44 38.07063 -85.68005 6390 ft 268 kts 137°
2026-05-03 21:44 38.05751 -85.66260 7246 ft 277 kts 137°
2026-05-03 21:44 38.04404 -85.64471 8203 ft 284 kts 137°
2026-05-03 21:45 38.03010 -85.62646 9110 ft 292 kts 139°
2026-05-03 21:45 38.01411 -85.61038 10037 ft 295 kts 154°
2026-05-03 21:45 37.99587 -85.59859 10936 ft 296 kts 160°
2026-05-03 21:45 37.97714 -85.58729 11867 ft 300 kts 160°
2026-05-03 21:46 37.95794 -85.57562 12594 ft 315 kts 160°
2026-05-03 21:46 37.93773 -85.56329 13230 ft 328 kts 159°
2026-05-03 21:46 37.91700 -85.55055 14067 ft 334 kts 159°
2026-05-03 21:46 37.89589 -85.53754 14862 ft 339 kts 159°
2026-05-03 21:47 37.87458 -85.52441 15674 ft 343 kts 159°
2026-05-03 21:47 37.85298 -85.51117 16497 ft 346 kts 158°
2026-05-03 21:47 37.83122 -85.49783 17345 ft 348 kts 158°
2026-05-03 21:47 37.80936 -85.48441 18228 ft 349 kts 158°
2026-05-03 21:48 37.78748 -85.47100 19026 ft 350 kts 158°
2026-05-03 21:48 37.76561 -85.45760 19819 ft 349 kts 159°
2026-05-03 21:48 37.74408 -85.44442 20625 ft 347 kts 159°
2026-05-03 21:48 37.72241 -85.43115 21464 ft 344 kts 159°
2026-05-03 21:49 37.70105 -85.41807 22347 ft 339 kts 160°
2026-05-03 21:49 37.67995 -85.40516 23229 ft 333 kts 160°
2026-05-03 21:49 37.65940 -85.39260 24053 ft 324 kts 160°
2026-05-03 21:49 37.63925 -85.38029 24674 ft 321 kts 161°
2026-05-03 21:50 37.61902 -85.36800 25100 ft 323 kts 161°
2026-05-03 21:50 37.59881 -85.35573 25577 ft 323 kts 161°
2026-05-03 21:50 37.57848 -85.34338 26004 ft 326 kts 161°
2026-05-03 21:50 37.55756 -85.33295 26414 ft 320 kts 174°
2026-05-03 21:51 37.53590 -85.32793 26819 ft 315 kts 182°
2026-05-03 21:51 37.51413 -85.32442 27236 ft 317 kts 182°
2026-05-03 21:51 37.49223 -85.32073 27648 ft 318 kts 182°
2026-05-03 21:51 37.47022 -85.31696 28047 ft 320 kts 182°
2026-05-03 21:52 37.44810 -85.31314 28430 ft 322 kts 182°
2026-05-03 21:52 37.42588 -85.30931 28823 ft 324 kts 182°
2026-05-03 21:52 37.40346 -85.30546 29136 ft 328 kts 182°
2026-05-03 21:52 37.38040 -85.30158 29200 ft 338 kts 181°
2026-05-03 21:53 37.35707 -85.29759 29644 ft 338 kts 181°
2026-05-03 21:53 37.33375 -85.29354 30041 ft 339 kts 181°
2026-05-03 21:53 37.31049 -85.28949 30502 ft 336 kts 181°
2026-05-03 21:53 37.28723 -85.28548 30805 ft 338 kts 182°
2026-05-03 21:54 37.26385 -85.28149 31081 ft 340 kts 182°
2026-05-03 21:54 37.24035 -85.27749 31377 ft 342 kts 182°
2026-05-03 21:54 37.21668 -85.27345 31673 ft 344 kts 182°
2026-05-03 21:54 37.19292 -85.26940 31957 ft 346 kts 182°
2026-05-03 21:55 37.16897 -85.26532 32233 ft 348 kts 182°
2026-05-03 21:55 37.14492 -85.26122 32506 ft 350 kts 182°
2026-05-03 21:55 37.12079 -85.25711 32772 ft 351 kts 181°
2026-05-03 21:55 37.09652 -85.25297 33037 ft 353 kts 181°
2026-05-03 21:56 37.07211 -85.24881 33293 ft 355 kts 181°
2026-05-03 21:56 37.04758 -85.24464 33536 ft 357 kts 181°
2026-05-03 21:56 37.02324 -85.24050 33786 ft 359 kts 181°
2026-05-03 21:56 36.99843 -85.23628 34046 ft 361 kts 181°
2026-05-03 21:57 36.97347 -85.23204 34260 ft 363 kts 181°
2026-05-03 21:57 36.94844 -85.22779 34469 ft 364 kts 181°
2026-05-03 21:57 36.92325 -85.22352 34676 ft 366 kts 181°
2026-05-03 21:57 36.89799 -85.21924 34881 ft 367 kts 181°
2026-05-03 21:58 36.87265 -85.21495 35100 ft 367 kts 181°
2026-05-03 21:58 36.84730 -85.21032 35305 ft 370 kts 180°
2026-05-03 21:58 36.82180 -85.20515 35514 ft 372 kts 179°
2026-05-03 21:58 36.79623 -85.19985 35704 ft 373 kts 179°
2026-05-03 21:59 36.77056 -85.19457 35899 ft 374 kts 179°
2026-05-03 21:59 36.74485 -85.18934 36090 ft 375 kts 179°
2026-05-03 21:59 36.71901 -85.18413 36268 ft 377 kts 179°
2026-05-03 21:59 36.69309 -85.17894 36454 ft 378 kts 179°
2026-05-03 22:00 36.66710 -85.17374 36624 ft 379 kts 179°
2026-05-03 22:00 36.64109 -85.16752 36787 ft 383 kts 175°
2026-05-03 22:00 36.61499 -85.16040 36895 ft 381 kts 177°
2026-05-03 22:00 36.58900 -85.15437 37113 ft 379 kts 179°
2026-05-03 22:01 36.56308 -85.14923 37382 ft 376 kts 180°
2026-05-03 22:01 36.53684 -85.14469 37183 ft 388 kts 180°
2026-05-03 22:01 36.50962 -85.14036 36955 ft 400 kts 181°
2026-05-03 22:01 36.48183 -85.13590 37020 ft 405 kts 180°
2026-05-03 22:02 36.45402 -85.13095 37396 ft 401 kts 179°
2026-05-03 22:02 36.42685 -85.12573 38027 ft 389 kts 179°
2026-05-03 22:02 36.40029 -85.12049 38388 ft 386 kts 179°
2026-05-03 22:02 36.37385 -85.11527 38599 ft 385 kts 179°
2026-05-03 22:03 36.34737 -85.11005 38752 ft 386 kts 179°
2026-05-03 22:03 36.32082 -85.10481 38853 ft 387 kts 179°
2026-05-03 22:03 36.26803 -85.08669 39056 ft 398 kts 170°
2026-05-03 22:04 36.21496 -85.06588 39141 ft 403 kts 171°
2026-05-03 22:04 36.16082 -85.04482 39143 ft 412 kts 171°
2026-05-03 22:05 36.10558 -85.02332 39136 ft 420 kts 171°
2026-05-03 22:05 36.04916 -85.00141 39136 ft 429 kts 171°
2026-05-03 22:06 35.99149 -84.97905 39136 ft 439 kts 170°
2026-05-03 22:06 35.93266 -84.95627 39136 ft 448 kts 170°
2026-05-03 22:07 35.87260 -84.93305 39137 ft 457 kts 170°
2026-05-03 22:07 35.81144 -84.90943 39140 ft 464 kts 170°
2026-05-03 22:08 35.74981 -84.88567 39137 ft 470 kts 170°
2026-05-03 22:08 35.68708 -84.86152 39137 ft 474 kts 170°
2026-05-03 22:09 35.62391 -84.83724 39132 ft 476 kts 170°
2026-05-03 22:10 35.52893 -84.80081 39138 ft 478 kts 170°
2026-05-03 22:10 35.46538 -84.77650 39137 ft 479 kts 170°
2026-05-03 22:11 35.40207 -84.75228 39135 ft 467 kts 170°
2026-05-03 22:11 35.37163 -84.74057 39123 ft 449 kts 170°
2026-05-03 22:11 35.34228 -84.72931 39106 ft 439 kts 170°
2026-05-03 22:12 35.28335 -84.70705 39100 ft 447 kts 170°
2026-05-03 22:12 35.22371 -84.68445 39098 ft 448 kts 170°
2026-05-03 22:13 35.16428 -84.66186 39101 ft 447 kts 171°
2026-05-03 22:13 35.10491 -84.63934 39134 ft 446 kts 171°
2026-05-03 22:14 35.04566 -84.61695 39137 ft 446 kts 171°
2026-05-03 22:14 34.98634 -84.59456 39143 ft 446 kts 171°
2026-05-03 22:15 34.92699 -84.57216 39148 ft 446 kts 171°
2026-05-03 22:15 34.86761 -84.54968 39124 ft 446 kts 171°
2026-05-03 22:16 34.80836 -84.52749 39148 ft 446 kts 171°
2026-05-03 22:16 34.74908 -84.50527 39151 ft 446 kts 171°
2026-05-03 22:17 34.68982 -84.48305 39151 ft 446 kts 171°
2026-05-03 22:17 34.63057 -84.46087 39150 ft 445 kts 171°
2026-05-03 22:18 34.57140 -84.43874 39149 ft 444 kts 171°
2026-05-03 22:18 34.51235 -84.41671 39148 ft 444 kts 171°
2026-05-03 22:19 34.46339 -84.39846 39143 ft 443 kts 171°
2026-05-03 22:19 34.40448 -84.37654 39136 ft 442 kts 171°
2026-05-03 22:20 34.34567 -84.35467 39106 ft 442 kts 171°
2026-05-03 22:20 34.28700 -84.33289 39124 ft 441 kts 171°
2026-05-03 22:21 34.22843 -84.31119 39122 ft 440 kts 171°
2026-05-03 22:21 34.16954 -84.29437 39114 ft 431 kts 178°
2026-05-03 22:22 34.11043 -84.28180 39117 ft 431 kts 179°
2026-05-03 22:22 34.05157 -84.26910 39108 ft 430 kts 179°
2026-05-03 22:23 33.99269 -84.25640 39109 ft 430 kts 179°
2026-05-03 22:23 33.93384 -84.24375 39106 ft 430 kts 179°
2026-05-03 22:24 33.87499 -84.23113 39106 ft 430 kts 179°
2026-05-03 22:24 33.81648 -84.21860 39072 ft 430 kts 179°
2026-05-03 22:25 33.75764 -84.20600 39108 ft 429 kts 179°
2026-05-03 22:25 33.69883 -84.19344 39120 ft 430 kts 179°
2026-05-03 22:26 33.63991 -84.18087 39116 ft 430 kts 179°
2026-05-03 22:26 33.58092 -84.16830 39141 ft 431 kts 179°
2026-05-03 22:27 33.52190 -84.15570 39151 ft 430 kts 179°
2026-05-03 22:27 33.46299 -84.14318 39156 ft 430 kts 179°
2026-05-03 22:28 33.40413 -84.13070 39158 ft 430 kts 179°
2026-05-03 22:28 33.34522 -84.11822 39153 ft 430 kts 179°
2026-05-03 22:29 33.28637 -84.10577 39147 ft 430 kts 179°
2026-05-03 22:29 33.22756 -84.09334 39143 ft 429 kts 179°
2026-05-03 22:30 33.16874 -84.08092 39138 ft 429 kts 179°
2026-05-03 22:30 33.11000 -84.06854 39129 ft 429 kts 179°
2026-05-03 22:31 33.05128 -84.05619 39126 ft 428 kts 179°
2026-05-03 22:31 32.99266 -84.04385 39134 ft 427 kts 180°
2026-05-03 22:32 32.93414 -84.03157 39135 ft 427 kts 180°
2026-05-03 22:32 32.87563 -84.01931 39131 ft 427 kts 180°
2026-05-03 22:33 32.81720 -84.00709 39126 ft 426 kts 180°
2026-05-03 22:33 32.75881 -83.99488 39117 ft 426 kts 180°
2026-05-03 22:34 32.70059 -83.98269 39132 ft 424 kts 180°
2026-05-03 22:34 32.64246 -83.97058 39128 ft 424 kts 180°
2026-05-03 22:35 32.58435 -83.95849 39126 ft 424 kts 180°
2026-05-03 22:35 32.52624 -83.94641 39127 ft 423 kts 180°
2026-05-03 22:36 32.46861 -83.93444 39095 ft 423 kts 181°
2026-05-03 22:36 32.41073 -83.92241 39124 ft 422 kts 181°
2026-05-03 22:37 32.35288 -83.90875 39113 ft 430 kts 175°
2026-05-03 22:37 32.29508 -83.88783 39118 ft 432 kts 174°
2026-05-03 22:38 32.23803 -83.86729 39125 ft 431 kts 175°
2026-05-03 22:38 32.18064 -83.84671 39108 ft 430 kts 175°
2026-05-03 22:39 32.12343 -83.82623 39127 ft 429 kts 175°
2026-05-03 22:39 32.06631 -83.80583 39124 ft 429 kts 175°
2026-05-03 22:40 32.00919 -83.78546 39124 ft 429 kts 175°
2026-05-03 22:40 31.95204 -83.76509 39124 ft 429 kts 175°
2026-05-03 22:41 31.89500 -83.74478 39120 ft 428 kts 175°
2026-05-03 22:41 31.83801 -83.72452 39121 ft 428 kts 175°
2026-05-03 22:42 31.78110 -83.70433 39122 ft 428 kts 175°
2026-05-03 22:42 31.72411 -83.68413 39121 ft 428 kts 175°
2026-05-03 22:43 31.66714 -83.66371 39122 ft 430 kts 174°
2026-05-03 22:43 31.61031 -83.64168 39126 ft 430 kts 174°
2026-05-03 22:44 31.55358 -83.61965 39132 ft 429 kts 175°
2026-05-03 22:44 31.49686 -83.59787 39129 ft 429 kts 175°
2026-05-03 22:45 31.44013 -83.57616 39128 ft 429 kts 175°
2026-05-03 22:45 31.38348 -83.55451 39125 ft 428 kts 175°
2026-05-03 22:46 31.32688 -83.53289 39104 ft 427 kts 175°
2026-05-03 22:46 31.27053 -83.51140 39131 ft 426 kts 175°
2026-05-03 22:47 31.21419 -83.48997 39129 ft 426 kts 175°
2026-05-03 22:47 31.15788 -83.46856 39127 ft 425 kts 175°
2026-05-03 22:48 31.10165 -83.44720 39122 ft 425 kts 175°
2026-05-03 22:48 31.04549 -83.42587 39109 ft 423 kts 176°
2026-05-03 22:49 30.98952 -83.40467 39111 ft 423 kts 176°
2026-05-03 22:49 30.93352 -83.38349 39120 ft 423 kts 176°
2026-05-03 22:50 30.87753 -83.36234 39117 ft 423 kts 176°
2026-05-03 22:50 30.82200 -83.34138 39115 ft 423 kts 176°
2026-05-03 22:51 30.76605 -83.32030 39097 ft 423 kts 176°
2026-05-03 22:51 30.71001 -83.29871 39109 ft 429 kts 172°
2026-05-03 22:52 30.65482 -83.26955 39105 ft 438 kts 169°
2026-05-03 22:52 30.59955 -83.23964 39118 ft 438 kts 169°
2026-05-03 22:53 30.54415 -83.20981 39130 ft 439 kts 169°
2026-05-03 22:53 30.48863 -83.17998 39132 ft 440 kts 169°
2026-05-03 22:54 30.43304 -83.15013 39138 ft 440 kts 169°
2026-05-03 22:54 30.37748 -83.12034 39151 ft 440 kts 169°
2026-05-03 22:55 30.32206 -83.09068 39145 ft 440 kts 169°
2026-05-03 22:55 30.26625 -83.06085 39144 ft 440 kts 169°
2026-05-03 22:56 30.21064 -83.03115 39097 ft 440 kts 169°
2026-05-03 22:56 30.15521 -83.00157 39138 ft 438 kts 169°
2026-05-03 22:57 30.09988 -82.97211 39132 ft 438 kts 169°
2026-05-03 22:57 30.04461 -82.94272 39127 ft 437 kts 169°
2026-05-03 22:58 29.98938 -82.91337 39125 ft 437 kts 169°
2026-05-03 22:58 29.93423 -82.88410 39106 ft 436 kts 169°
2026-05-03 22:59 29.87928 -82.85495 39098 ft 434 kts 170°
2026-05-03 22:59 29.82441 -82.82592 39090 ft 433 kts 170°
2026-05-03 23:00 29.76960 -82.79696 39085 ft 433 kts 170°
2026-05-03 23:00 29.71489 -82.76806 39108 ft 432 kts 170°
2026-05-03 23:01 29.66035 -82.73929 39107 ft 431 kts 170°
2026-05-03 23:01 29.60583 -82.71057 39100 ft 430 kts 171°
2026-05-03 23:02 29.55149 -82.68198 39099 ft 430 kts 171°
2026-05-03 23:02 29.49713 -82.65343 39093 ft 430 kts 171°
2026-05-03 23:03 29.44277 -82.62490 39092 ft 430 kts 171°
2026-05-03 23:03 29.38841 -82.59640 39090 ft 430 kts 171°
2026-05-03 23:04 29.33399 -82.56790 39090 ft 430 kts 171°
2026-05-03 23:04 29.28882 -82.54459 39070 ft 423 kts 174°
2026-05-03 23:04 29.26135 -82.53441 39074 ft 408 kts 182°
2026-05-03 23:05 29.22516 -82.52762 39073 ft 390 kts 191°
2026-05-03 23:05 29.17181 -82.52712 39073 ft 383 kts 194°
2026-05-03 23:06 29.12712 -82.52721 39074 ft 384 kts 194°
2026-05-03 23:06 29.07358 -82.52718 39079 ft 385 kts 194°
2026-05-03 23:07 29.02028 -82.52712 39062 ft 386 kts 194°
2026-05-03 23:07 28.96655 -82.52710 39073 ft 387 kts 194°
2026-05-03 23:08 28.91251 -82.52708 39083 ft 389 kts 194°
2026-05-03 23:08 28.85835 -82.52706 39091 ft 390 kts 194°
2026-05-03 23:09 28.80398 -82.52702 39104 ft 391 kts 194°
2026-05-03 23:09 28.74951 -82.52699 39059 ft 392 kts 194°
2026-05-03 23:10 28.69496 -82.52695 39092 ft 392 kts 194°
2026-05-03 23:10 28.64034 -82.52693 39093 ft 393 kts 194°
2026-05-03 23:11 28.58556 -82.52690 39100 ft 394 kts 194°
2026-05-03 23:11 28.53081 -82.52687 39098 ft 394 kts 194°
2026-05-03 23:12 28.47600 -82.52684 39095 ft 394 kts 194°
2026-05-03 23:12 28.42126 -82.52681 39065 ft 393 kts 194°
2026-05-03 23:13 28.36654 -82.52678 39065 ft 393 kts 194°
2026-05-03 23:13 28.31186 -82.52676 39067 ft 393 kts 194°
2026-05-03 23:14 28.25708 -82.52673 39065 ft 394 kts 194°
2026-05-03 23:14 28.20229 -82.52670 39077 ft 394 kts 194°
2026-05-03 23:15 28.14779 -82.52668 39050 ft 394 kts 194°
2026-05-03 23:15 28.09288 -82.52666 39049 ft 395 kts 194°
2026-05-03 23:16 28.03795 -82.52663 39054 ft 396 kts 193°
2026-05-03 23:16 28.01008 -82.52480 39055 ft 407 kts 187°
2026-05-03 23:16 27.98181 -82.51958 39057 ft 418 kts 182°
2026-05-03 23:16 27.95337 -82.51076 39060 ft 429 kts 176°
2026-05-03 23:17 27.92492 -82.50044 39062 ft 429 kts 177°
2026-05-03 23:17 27.86797 -82.48002 39060 ft 430 kts 177°
2026-05-03 23:18 27.81093 -82.45978 39038 ft 430 kts 177°
2026-05-03 23:18 27.75379 -82.43955 39049 ft 431 kts 177°
2026-05-03 23:19 27.69651 -82.41929 39059 ft 432 kts 177°
2026-05-03 23:19 27.63911 -82.39901 39068 ft 433 kts 176°
2026-05-03 23:20 27.58160 -82.37871 39072 ft 433 kts 176°
2026-05-03 23:20 27.52400 -82.35840 39078 ft 434 kts 176°
2026-05-03 23:21 27.46629 -82.33807 39081 ft 435 kts 176°
2026-05-03 23:21 27.40854 -82.31774 39086 ft 435 kts 176°
2026-05-03 23:22 27.32386 -82.27301 39082 ft 458 kts 164°
2026-05-03 23:22 27.26841 -82.23754 39079 ft 458 kts 164°
2026-05-03 23:23 27.21310 -82.20241 39061 ft 456 kts 164°
2026-05-03 23:23 27.15782 -82.16738 39059 ft 456 kts 164°
2026-05-03 23:24 27.10256 -82.13241 39071 ft 456 kts 164°
2026-05-03 23:24 27.04727 -82.09746 39074 ft 456 kts 164°
2026-05-03 23:25 26.99209 -82.06254 39075 ft 457 kts 162°
2026-05-03 23:25 26.96530 -82.04248 39074 ft 470 kts 155°
2026-05-03 23:25 26.94061 -82.01874 39037 ft 482 kts 147°
2026-05-03 23:26 26.89404 -81.96362 39065 ft 486 kts 145°
2026-05-03 23:26 26.84758 -81.90856 39019 ft 484 kts 145°
2026-05-03 23:27 26.82438 -81.88106 38712 ft 476 kts 145°
2026-05-03 23:27 26.80183 -81.85438 38241 ft 470 kts 146°
2026-05-03 23:27 26.77958 -81.82819 37535 ft 470 kts 146°
2026-05-03 23:27 26.75694 -81.80168 36764 ft 472 kts 146°
2026-05-03 23:28 26.73379 -81.77479 36008 ft 474 kts 146°
2026-05-03 23:28 26.71092 -81.74827 35287 ft 475 kts 145°
2026-05-03 23:28 26.68821 -81.72194 34610 ft 476 kts 145°
2026-05-03 23:28 26.66493 -81.69492 33907 ft 477 kts 145°
2026-05-03 23:29 26.64217 -81.66851 33139 ft 477 kts 144°
2026-05-03 23:29 26.62037 -81.64010 32312 ft 487 kts 136°
2026-05-03 23:29 26.60005 -81.60977 31588 ft 488 kts 135°
2026-05-03 23:29 26.57974 -81.57947 30880 ft 487 kts 135°
2026-05-03 23:30 26.55938 -81.54915 30182 ft 487 kts 135°
2026-05-03 23:30 26.53907 -81.51896 29443 ft 485 kts 135°
2026-05-03 23:30 26.51885 -81.48893 28783 ft 481 kts 135°
2026-05-03 23:30 26.49883 -81.45918 28139 ft 478 kts 135°
2026-05-03 23:31 26.47894 -81.42968 27507 ft 474 kts 134°
2026-05-03 23:31 26.45919 -81.40043 26889 ft 470 kts 134°
2026-05-03 23:31 26.43963 -81.37147 26284 ft 466 kts 134°
2026-05-03 23:31 26.42021 -81.34274 25693 ft 462 kts 134°
2026-05-03 23:32 26.40082 -81.31441 25113 ft 456 kts 136°
2026-05-03 23:32 26.38077 -81.28728 24543 ft 450 kts 138°
2026-05-03 23:32 26.36060 -81.26082 23979 ft 446 kts 138°
2026-05-03 23:32 26.34058 -81.23458 23402 ft 442 kts 137°
2026-05-03 23:33 26.32085 -81.20855 22751 ft 438 kts 137°
2026-05-03 23:33 26.30132 -81.18262 22105 ft 434 kts 137°
2026-05-03 23:33 26.28201 -81.15692 21465 ft 431 kts 136°
2026-05-03 23:33 26.26278 -81.13153 20810 ft 427 kts 137°
2026-05-03 23:34 26.24349 -81.10622 19941 ft 431 kts 136°
2026-05-03 23:34 26.22397 -81.08066 19016 ft 435 kts 136°
2026-05-03 23:34 26.20429 -81.05488 18085 ft 438 kts 136°
2026-05-03 23:34 26.18451 -81.02894 17066 ft 440 kts 135°
2026-05-03 23:35 26.16532 -81.00255 16094 ft 444 kts 129°
2026-05-03 23:35 26.15027 -80.97256 15475 ft 441 kts 117°
2026-05-03 23:35 26.14075 -80.94056 15207 ft 428 kts 105°
2026-05-03 23:35 26.13538 -80.90868 15075 ft 410 kts 103°
2026-05-03 23:36 26.13034 -80.87822 15033 ft 391 kts 103°
2026-05-03 23:36 26.12549 -80.84915 14934 ft 375 kts 103°
2026-05-03 23:36 26.12074 -80.82087 14538 ft 370 kts 103°
2026-05-03 23:36 26.11592 -80.79257 13857 ft 375 kts 105°
2026-05-03 23:37 26.10644 -80.76554 12852 ft 379 kts 125°
2026-05-03 23:37 26.08915 -80.74355 11857 ft 379 kts 146°
2026-05-03 23:37 26.06626 -80.72952 10887 ft 376 kts 166°
2026-05-03 23:37 26.04081 -80.72296 9957 ft 377 kts 173°
2026-05-03 23:38 26.01491 -80.71739 8945 ft 381 kts 173°
2026-05-03 23:38 25.98874 -80.71192 7956 ft 384 kts 173°
2026-05-03 23:38 25.96245 -80.70658 7000 ft 386 kts 173°
2026-05-03 23:38 25.93519 -80.70131 7433 ft 395 kts 173°
2026-05-03 23:39 25.90842 -80.69610 8678 ft 389 kts 173°
2026-05-03 23:39 25.88176 -80.69070 9646 ft 391 kts 173°
2026-05-03 23:39 25.85453 -80.68837 10299 ft 396 kts 187°
2026-05-03 23:39 25.82853 -80.69436 10637 ft 364 kts 204°
2026-05-03 23:40 25.80774 -80.70784 10665 ft 334 kts 224°
2026-05-03 23:40 25.79386 -80.72738 10400 ft 317 kts 245°
2026-05-03 23:40 25.78803 -80.75060 9862 ft 314 kts 266°
2026-05-03 23:40 25.79093 -80.77470 9025 ft 322 kts 288°
2026-05-03 23:41 25.80250 -80.79622 8185 ft 334 kts 310°
2026-05-03 23:41 25.82140 -80.81182 7361 ft 345 kts 332°
2026-05-03 23:41 25.84481 -80.81875 6560 ft 355 kts 351°
2026-05-03 23:41 25.86959 -80.82083 5746 ft 358 kts 353°
2026-05-03 23:42 25.89396 -80.82260 5268 ft 351 kts 358°
2026-05-03 23:42 25.91836 -80.81730 5078 ft 368 kts 20°
2026-05-03 23:42 25.93933 -80.80304 5003 ft 352 kts 41°
2026-05-03 23:42 25.95361 -80.78209 5005 ft 332 kts 63°
2026-05-03 23:43 25.96287 -80.75944 5004 ft 312 kts 66°
2026-05-03 23:43 25.97145 -80.73804 5005 ft 294 kts 65°
2026-05-03 23:43 25.97969 -80.71771 5002 ft 276 kts 65°
2026-05-03 23:43 25.98755 -80.69848 5005 ft 276 kts 64°
2026-05-03 23:44 25.99544 -80.67936 5002 ft 275 kts 64°
2026-05-03 23:44 26.00338 -80.66010 5005 ft 273 kts 64°
2026-05-03 23:44 26.01131 -80.64087 5008 ft 275 kts 64°
2026-05-03 23:44 26.01927 -80.62160 5003 ft 275 kts 64°
2026-05-03 23:45 26.02727 -80.60230 5004 ft 275 kts 64°
2026-05-03 23:45 26.03522 -80.58306 5007 ft 274 kts 64°
2026-05-03 23:45 26.04311 -80.56380 5006 ft 274 kts 64°
2026-05-03 23:45 26.05103 -80.54445 5007 ft 275 kts 64°
2026-05-03 23:46 26.05893 -80.52518 5000 ft 274 kts 65°
2026-05-03 23:46 26.06554 -80.50574 4999 ft 265 kts 77°
2026-05-03 23:46 26.06800 -80.48543 5002 ft 266 kts 88°
2026-05-03 23:46 26.06802 -80.46489 5001 ft 265 kts 92°
2026-05-03 23:47 26.06772 -80.44435 4998 ft 265 kts 91°
2026-05-03 23:47 26.06760 -80.42382 4898 ft 266 kts 91°
2026-05-03 23:47 26.06746 -80.40324 4516 ft 268 kts 91°
2026-05-03 23:47 26.06733 -80.38234 4033 ft 273 kts 91°
2026-05-03 23:48 26.06719 -80.36119 3731 ft 269 kts 91°
2026-05-03 23:48 26.06707 -80.34075 3510 ft 262 kts 91°
2026-05-03 23:48 26.06694 -80.32037 3143 ft 263 kts 91°
2026-05-03 23:48 26.06681 -80.30035 3011 ft 254 kts 90°
2026-05-03 23:49 26.06668 -80.28125 2987 ft 240 kts 91°
2026-05-03 23:49 26.06656 -80.26324 2981 ft 226 kts 91°
2026-05-03 23:49 26.06652 -80.24552 2280 ft 241 kts 90°
2026-05-03 23:49 26.06633 -80.22672 1801 ft 244 kts 90°
2026-05-03 23:50 26.06610 -80.20820 1139 ft 241 kts 89°
2026-05-03 23:50 26.06628 -80.19602 862 ft 228 kts 89°
2026-05-03 23:50 26.06589 -80.17350 326 ft 211 kts 88°
2026-05-03 23:50 26.06584 -80.15819 466 ft 193 kts 88°
2026-05-03 23:51 26.06547 -80.14231 1065 ft 216 kts 90°
2026-05-03 23:51 26.06517 -80.12521 1896 ft 227 kts 90°
2026-05-03 23:51 26.06500 -80.10720 2571 ft 240 kts 89°
2026-05-03 23:51 26.06528 -80.08730 1826 ft 261 kts 87°
2026-05-03 23:52 26.06595 -80.06803 1564 ft 235 kts 87°
2026-05-03 23:52 26.06653 -80.04908 1823 ft 256 kts 87°
2026-05-03 23:52 26.06642 -80.02844 2002 ft 281 kts 97°
2026-05-03 23:52 26.05977 -80.00808 1652 ft 272 kts 123°
2026-05-03 23:53 26.04677 -79.99424 1282 ft 251 kts 145°
2026-05-03 23:53 26.03204 -79.98344 968 ft 271 kts 142°
2026-05-03 23:53 26.02269 -79.97402 927 ft 269 kts 132°
2026-05-03 23:53 26.00971 -79.96140 1011 ft 229 kts 154°
2026-05-03 23:54 25.99436 -79.95838 1276 ft 230 kts 188°
2026-05-03 23:54 25.97989 -79.96522 1700 ft 229 kts 222°
2026-05-03 23:54 25.97151 -79.97950 2379 ft 222 kts 257°
2026-05-03 23:54 25.96897 -79.99626 3263 ft 220 kts 263°
2026-05-03 23:55 25.96685 -80.01319 3738 ft 223 kts 262°
2026-05-03 23:55 25.96478 -80.03019 3933 ft 221 kts 263°
2026-05-03 23:55 25.96278 -80.04712 3995 ft 222 kts 263°
2026-05-03 23:55 25.96077 -80.06408 3996 ft 221 kts 263°
2026-05-03 23:56 25.95873 -80.08104 3999 ft 222 kts 263°
2026-05-03 23:56 25.95664 -80.09794 3996 ft 220 kts 263°
2026-05-03 23:56 25.95463 -80.11496 3998 ft 224 kts 263°
2026-05-03 23:56 25.95263 -80.13187 3997 ft 221 kts 263°
2026-05-03 23:57 25.95165 -80.14894 4012 ft 220 kts 278°
2026-05-03 23:57 25.95490 -80.16566 4015 ft 221 kts 283°
2026-05-03 23:57 25.95847 -80.18210 4013 ft 218 kts 283°
2026-05-03 23:57 25.96205 -80.19855 4014 ft 219 kts 283°
2026-05-03 23:58 25.96565 -80.21497 4013 ft 218 kts 283°
2026-05-03 23:58 25.96924 -80.23131 4015 ft 218 kts 283°
2026-05-03 23:58 25.97284 -80.24769 4016 ft 219 kts 283°
2026-05-03 23:58 25.97646 -80.26412 4015 ft 219 kts 283°
2026-05-03 23:59 25.98007 -80.28052 4013 ft 218 kts 283°
2026-05-03 23:59 25.98370 -80.29689 4015 ft 219 kts 283°
2026-05-03 23:59 25.98732 -80.31328 4016 ft 219 kts 283°
2026-05-03 23:59 25.99095 -80.32970 4015 ft 218 kts 283°
2026-05-04 00:00 25.99464 -80.34610 4012 ft 221 kts 283°
2026-05-04 00:00 25.99868 -80.36259 3918 ft 222 kts 292°
2026-05-04 00:00 26.00813 -80.37606 3560 ft 228 kts 323°
2026-05-04 00:00 26.02297 -80.38295 3167 ft 234 kts 342°
2026-05-04 00:01 26.03885 -80.38462 3017 ft 228 kts 11°
2026-05-04 00:01 26.05246 -80.37696 2989 ft 215 kts 45°
2026-05-04 00:01 26.06021 -80.36367 2994 ft 196 kts 62°
2026-05-04 00:01 26.06528 -80.35051 2982 ft 177 kts 81°
2026-05-04 00:02 26.06424 -80.33658 3002 ft 187 kts 101°
2026-05-04 00:02 26.06189 -80.32291 3000 ft 173 kts 101°
2026-05-04 00:02 26.06198 -80.31021 3002 ft 158 kts 84°
2026-05-04 00:02 26.06304 -80.29841 3002 ft 156 kts 84°
2026-05-04 00:03 26.06423 -80.28513 3061 ft 175 kts 84°
2026-05-04 00:03 26.06574 -80.27215 2858 ft 165 kts 82°
2026-05-04 00:03 26.06666 -80.25949 2456 ft 166 kts 87°
2026-05-04 00:03 26.06702 -80.24660 2031 ft 167 kts 89°
2026-05-04 00:04 26.06666 -80.23376 1632 ft 166 kts 92°
2026-05-04 00:04 26.06601 -80.22100 1246 ft 164 kts 91°
2026-05-04 00:04 26.06600 -80.20851 934 ft 157 kts 87°
2026-05-04 00:04 26.06622 -80.19672 714 ft 148 kts 88°
2026-05-04 00:05 26.06616 -80.18580 510 ft 139 kts 88°
2026-05-04 00:05 26.06611 -80.17499 334 ft 154 kts 89°
2026-05-04 00:05 26.06598 -80.16353 171 ft 145 kts 89°
2026-05-04 00:05 26.06588 -80.15266 25 ft 134 kts 89°
2026-05-04 00:06 26.06583 -80.14662 19 ft 7 kts 91°
2026-05-04 00:06 26.06581 -80.14512 18 ft 33 kts 90°
2026-05-04 00:06 26.06580 -80.14426 17 ft 18 kts 90°
2026-05-04 00:06 26.06618 -80.14250 18 ft 9 kts 57°
2026-05-04 00:07 26.06640 -80.14228 19 ft 0 kts 18°
2026-05-04 00:07 26.06683 -80.14236 18 ft 6 kts 297°
2026-05-04 00:08 26.06691 -80.14437 17 ft 30 kts 270°
2026-05-04 00:08 26.06693 -80.14686 18 ft 36 kts 270°
2026-05-04 00:08 26.06701 -80.14900 24 ft 18 kts 296°
2026-05-04 00:08 26.06773 -80.14887 22 ft 10 kts 90°
2026-05-04 00:09 26.06767 -80.14788 20 ft 16 kts 90°
2026-05-04 00:09 26.06768 -80.14640 16 ft 22 kts 92°
2026-05-04 00:09 26.06757 -80.14481 16 ft 19 kts 86°
2026-05-04 00:09 26.06807 -80.14370 18 ft 12 kts 22°
2026-05-04 00:10 26.06865 -80.14385 18 ft 6 kts 358°
2026-05-04 00:10 26.06867 -80.14385 18 ft 0 kts 357°